Simultaneous Nadir Overpasses (SNOs) Predictions

Prediction of SNOs between GOES-15 and NPP Satellite Orbit:

Table of predicted SNOs for the next 14.0 days since TLE Epoch: 7/10/2020
Index Date Time (GOES-15) GOES-15 Lat,Lon NPP Lat,Lon Distance(km) Time Diff (sec)
1 07/11/2020 22:01:57 -0.03,-128.30 -0.32,-129.53 141.11 80
2 07/12/2020 21:45:53 -0.03,-128.31 0.72,-125.01 376.59 80
3 07/14/2020 10:07:42 0.03,-128.38 0.47,-130.28 216.51 80
4 07/15/2020 09:46:18 0.02,-128.39 -0.57,-125.75 300.50 80
5 07/16/2020 22:08:16 -0.02,-128.35 -0.61,-131.06 308.90 80
6 07/17/2020 21:52:11 -0.01,-128.35 0.38,-126.53 207.84 80
7 07/19/2020 10:14:00 0.00,-128.41 0.76,-131.81 386.46 80
8 07/20/2020 09:52:37 -0.01,-128.41 -0.29,-127.28 129.61 80
9 07/21/2020 22:14:33 0.01,-128.36 -0.95,-132.58 481.52 80
10 07/22/2020 21:58:30 0.02,-128.36 0.10,-128.06 34.65 80
